HAZ6331 ZGGG-ZSWX

Flight info

Callsign HAZ6331
Flight time 1h 43m
Altitude 26600
Route BOVMA W41 DOPKU G471 PLT A599 TUPGA W135 LUPVI R343 SASAN
Aircraft A20N/M-SD1T1E2E3FGILRWXY/LB1D1

Departure

Time 2026-05-06 13:52
Airport Guangzhou Baiyun International Airport (ZGGG)

Arrival

Time 2026-05-06 15:35
Airport Sunan Shuofang International Airport (ZSWX)
Time Latitude Longitude Altitude Speed Heading
2026-05-06 13:24 23.37359 113.32018 51 ft 0 kts 284°
2026-05-06 13:39 23.37356 113.32029 51 ft 2 kts 284°
2026-05-06 13:40 23.37352 113.32045 51 ft 2 kts 284°
2026-05-06 13:40 23.37349 113.32061 51 ft 1 kts 284°
2026-05-06 13:40 23.37346 113.32071 51 ft 2 kts 270°
2026-05-06 13:40 23.37351 113.32087 51 ft 2 kts 230°
2026-05-06 13:41 23.37362 113.32096 51 ft 0 kts 197°
2026-05-06 13:41 23.37368 113.32097 51 ft 1 kts 192°
2026-05-06 13:41 23.37370 113.32098 51 ft 0 kts 193°
2026-05-06 13:43 23.37369 113.32098 51 ft 0 kts 193°
2026-05-06 13:44 23.37350 113.32093 51 ft 4 kts 192°
2026-05-06 13:44 23.37306 113.32082 51 ft 8 kts 193°
2026-05-06 13:44 23.37238 113.32063 51 ft 11 kts 196°
2026-05-06 13:44 23.37157 113.32070 51 ft 13 kts 125°
2026-05-06 13:45 23.37113 113.32166 51 ft 14 kts 152°
2026-05-06 13:45 23.36900 113.32126 51 ft 16 kts 193°
2026-05-06 13:45 23.36782 113.32096 51 ft 17 kts 193°
2026-05-06 13:46 23.36659 113.32062 51 ft 18 kts 194°
2026-05-06 13:46 23.36531 113.32027 51 ft 19 kts 193°
2026-05-06 13:46 23.36399 113.31991 51 ft 19 kts 194°
2026-05-06 13:46 23.36264 113.31955 51 ft 20 kts 193°
2026-05-06 13:47 23.36124 113.31918 51 ft 20 kts 194°
2026-05-06 13:47 23.35982 113.31879 51 ft 20 kts 194°
2026-05-06 13:47 23.35839 113.31841 51 ft 20 kts 194°
2026-05-06 13:47 23.35760 113.31818 51 ft 0 kts 194°
2026-05-06 13:49 23.35757 113.31818 51 ft 1 kts 194°
2026-05-06 13:49 23.35731 113.31810 51 ft 5 kts 194°
2026-05-06 13:50 23.35677 113.31795 51 ft 9 kts 193°
2026-05-06 13:50 23.35596 113.31774 51 ft 13 kts 193°
2026-05-06 13:50 23.35515 113.31805 51 ft 14 kts 107°
2026-05-06 13:50 23.35511 113.31916 51 ft 15 kts 48°
2026-05-06 13:51 23.35592 113.31947 51 ft 5 kts 14°
2026-05-06 13:51 23.35854 113.32018 51 ft 78 kts 13°
2026-05-06 13:51 23.36618 113.32224 52 ft 144 kts 14°
2026-05-06 13:51 23.37715 113.32530 340 ft 171 kts 15°
2026-05-06 13:52 23.38911 113.32867 864 ft 185 kts 16°
2026-05-06 13:52 23.40194 113.33279 1498 ft 196 kts 25°
2026-05-06 13:52 23.41256 113.34171 2062 ft 201 kts 63°
2026-05-06 13:52 23.41594 113.35663 2588 ft 209 kts 89°
2026-05-06 13:53 23.41690 113.37257 3245 ft 216 kts 87°
2026-05-06 13:53 23.41865 113.38887 3921 ft 223 kts 84°
2026-05-06 13:53 23.42138 113.40623 4344 ft 243 kts 80°
2026-05-06 13:53 23.42508 113.42493 4841 ft 263 kts 78°
2026-05-06 13:54 23.42954 113.44489 5329 ft 282 kts 77°
2026-05-06 13:54 23.43464 113.46639 5825 ft 301 kts 76°
2026-05-06 13:54 23.44018 113.48907 6315 ft 320 kts 76°
2026-05-06 13:54 23.44608 113.51289 6794 ft 332 kts 75°
2026-05-06 13:55 23.45219 113.53741 7274 ft 337 kts 75°
2026-05-06 13:55 23.45839 113.56216 7753 ft 340 kts 75°
2026-05-06 13:55 23.46464 113.58710 8230 ft 344 kts 75°
2026-05-06 13:55 23.47105 113.61271 8714 ft 348 kts 75°
2026-05-06 13:56 23.47744 113.63822 9190 ft 350 kts 74°
2026-05-06 13:56 23.48388 113.66399 9664 ft 354 kts 75°
2026-05-06 13:56 23.49028 113.68971 10136 ft 357 kts 75°
2026-05-06 13:56 23.49677 113.71578 10613 ft 360 kts 75°
2026-05-06 13:57 23.50336 113.74226 11091 ft 362 kts 75°
2026-05-06 13:57 23.51000 113.76894 11563 ft 365 kts 75°
2026-05-06 13:57 23.51666 113.79569 12038 ft 368 kts 75°
2026-05-06 13:57 23.52341 113.82282 12515 ft 370 kts 74°
2026-05-06 13:58 23.53011 113.84975 12981 ft 373 kts 74°
2026-05-06 13:58 23.53699 113.87740 13458 ft 375 kts 74°
2026-05-06 13:58 23.54381 113.90485 13927 ft 379 kts 75°
2026-05-06 13:58 23.55073 113.93267 14396 ft 382 kts 75°
2026-05-06 13:59 23.55768 113.96072 14867 ft 386 kts 75°
2026-05-06 13:59 23.56469 113.98897 15335 ft 389 kts 75°
2026-05-06 13:59 23.57177 114.01756 15803 ft 392 kts 75°
2026-05-06 13:59 23.57896 114.04662 16280 ft 395 kts 75°
2026-05-06 14:00 23.58615 114.07565 16749 ft 398 kts 75°
2026-05-06 14:00 23.59332 114.10467 17217 ft 401 kts 75°
2026-05-06 14:00 23.60056 114.13401 17690 ft 404 kts 75°
2026-05-06 14:00 23.60794 114.16389 18169 ft 406 kts 75°
2026-05-06 14:01 23.61526 114.19357 18640 ft 409 kts 75°
2026-05-06 14:01 23.62268 114.22367 19111 ft 411 kts 75°
2026-05-06 14:01 23.63009 114.25381 19511 ft 415 kts 75°
2026-05-06 14:01 23.63763 114.28448 19658 ft 416 kts 75°
2026-05-06 14:02 23.64771 114.31382 19654 ft 415 kts 61°
2026-05-06 14:02 23.66429 114.33934 19669 ft 412 kts 45°
2026-05-06 14:02 23.68572 114.35963 19677 ft 411 kts 36°
2026-05-06 14:02 23.70877 114.37829 19672 ft 411 kts 34°
2026-05-06 14:03 23.73198 114.39678 19671 ft 411 kts 34°
2026-05-06 14:03 23.75520 114.41541 19676 ft 412 kts 34°
2026-05-06 14:03 23.77821 114.43404 19681 ft 411 kts 34°
2026-05-06 14:03 23.80108 114.45268 19681 ft 411 kts 35°
2026-05-06 14:04 23.82429 114.47167 19687 ft 411 kts 35°
2026-05-06 14:04 23.84712 114.49040 19690 ft 411 kts 35°
2026-05-06 14:04 23.87002 114.50920 19692 ft 411 kts 35°
2026-05-06 14:04 23.89274 114.52787 19717 ft 410 kts 35°
2026-05-06 14:05 23.91585 114.54688 19974 ft 413 kts 35°
2026-05-06 14:05 23.93894 114.56588 20246 ft 421 kts 35°
2026-05-06 14:05 23.96242 114.58522 20506 ft 429 kts 35°
2026-05-06 14:05 23.98666 114.60519 20771 ft 436 kts 35°
2026-05-06 14:06 24.01094 114.62522 21030 ft 440 kts 35°
2026-05-06 14:06 24.03579 114.64572 21293 ft 442 kts 35°
2026-05-06 14:06 24.06045 114.66614 21556 ft 444 kts 36°
2026-05-06 14:06 24.08503 114.68660 21818 ft 446 kts 36°
2026-05-06 14:07 24.10986 114.70722 22078 ft 447 kts 36°
2026-05-06 14:07 24.13475 114.72774 22341 ft 449 kts 35°
2026-05-06 14:07 24.15970 114.74827 22603 ft 451 kts 35°
2026-05-06 14:07 24.18478 114.76895 22863 ft 452 kts 35°
2026-05-06 14:08 24.21025 114.79001 23130 ft 453 kts 35°
2026-05-06 14:08 24.23545 114.81088 23395 ft 454 kts 35°
2026-05-06 14:08 24.26082 114.83099 23656 ft 453 kts 30°
2026-05-06 14:08 24.28855 114.84752 23926 ft 451 kts 21°
2026-05-06 14:09 24.31829 114.85952 24200 ft 449 kts 13°
2026-05-06 14:09 24.34864 114.86773 24475 ft 449 kts 10°
2026-05-06 14:09 24.37922 114.87511 24749 ft 450 kts
2026-05-06 14:09 24.40971 114.88235 25018 ft 451 kts
2026-05-06 14:10 24.44029 114.88969 25289 ft 452 kts
2026-05-06 14:10 24.47106 114.89716 25561 ft 453 kts
2026-05-06 14:10 24.50196 114.90475 25835 ft 454 kts
2026-05-06 14:10 24.53286 114.91238 26108 ft 455 kts
2026-05-06 14:11 24.56426 114.92016 26386 ft 456 kts
2026-05-06 14:11 24.59516 114.92782 26577 ft 458 kts
2026-05-06 14:11 24.62609 114.93550 26594 ft 456 kts
2026-05-06 14:11 24.65742 114.94327 26598 ft 458 kts
2026-05-06 14:12 24.68881 114.95101 26596 ft 468 kts
2026-05-06 14:12 24.72080 114.95891 26594 ft 475 kts
2026-05-06 14:12 24.75312 114.96692 26592 ft 477 kts
2026-05-06 14:12 24.78602 114.97506 26593 ft 478 kts
2026-05-06 14:13 24.81838 114.98299 26594 ft 478 kts
2026-05-06 14:13 24.85078 114.99091 26597 ft 478 kts
2026-05-06 14:13 24.88367 114.99892 26598 ft 478 kts
2026-05-06 14:13 24.91605 115.00680 26598 ft 479 kts
2026-05-06 14:14 24.94887 115.01479 26601 ft 479 kts
2026-05-06 14:14 24.98125 115.02268 26601 ft 479 kts
2026-05-06 14:14 25.01381 115.03062 26601 ft 480 kts
2026-05-06 14:14 25.04681 115.03866 26600 ft 479 kts
2026-05-06 14:15 25.07927 115.04658 26599 ft 479 kts
2026-05-06 14:15 25.11212 115.05459 26595 ft 479 kts
2026-05-06 14:15 25.14463 115.06250 26593 ft 479 kts
2026-05-06 14:15 25.17700 115.07037 26587 ft 479 kts
2026-05-06 14:16 25.20968 115.07833 26587 ft 479 kts
2026-05-06 14:16 25.24227 115.08628 26582 ft 479 kts
2026-05-06 14:16 25.27483 115.09425 26581 ft 480 kts
2026-05-06 14:16 25.30793 115.10174 26567 ft 478 kts
2026-05-06 14:17 25.34090 115.10311 26569 ft 471 kts 353°
2026-05-06 14:17 25.37299 115.09738 26571 ft 466 kts 341°
2026-05-06 14:17 25.40309 115.08526 26576 ft 462 kts 333°
2026-05-06 14:17 25.43275 115.07026 26568 ft 462 kts 332°
2026-05-06 14:18 25.46180 115.05514 26560 ft 462 kts 332°
2026-05-06 14:18 25.49077 115.04003 26557 ft 462 kts 332°
2026-05-06 14:18 25.51985 115.02490 26558 ft 462 kts 332°
2026-05-06 14:18 25.54897 115.00983 26557 ft 462 kts 332°
2026-05-06 14:19 25.57854 114.99456 26559 ft 462 kts 332°
2026-05-06 14:19 25.60772 114.97950 26560 ft 462 kts 332°
2026-05-06 14:19 25.63690 114.96442 26565 ft 463 kts 332°
2026-05-06 14:19 25.66598 114.94942 26561 ft 462 kts 332°
2026-05-06 14:20 25.69515 114.93433 26564 ft 462 kts 332°
2026-05-06 14:20 25.72472 114.91904 26566 ft 468 kts 332°
2026-05-06 14:20 25.75430 114.90376 26563 ft 471 kts 332°
2026-05-06 14:20 25.78526 114.89158 26607 ft 477 kts 345°
2026-05-06 14:21 25.81814 114.88803 26993 ft 479 kts 357°
2026-05-06 14:21 25.85145 114.89301 27373 ft 485 kts 11°
2026-05-06 14:21 25.88368 114.90465 27763 ft 486 kts 15°
2026-05-06 14:21 25.91547 114.91729 28141 ft 485 kts 15°
2026-05-06 14:22 25.94738 114.93014 28523 ft 483 kts 15°
2026-05-06 14:22 25.97872 114.94273 28892 ft 481 kts 15°
2026-05-06 14:22 26.01059 114.95545 29201 ft 481 kts 15°
2026-05-06 14:22 26.04195 114.96790 29507 ft 480 kts 15°
2026-05-06 14:23 26.07352 114.98038 29619 ft 484 kts 15°
2026-05-06 14:23 26.10566 114.99309 29625 ft 483 kts 15°
2026-05-06 14:23 26.16884 115.01800 29627 ft 482 kts 15°
2026-05-06 14:24 26.23212 115.04298 29620 ft 481 kts 15°
2026-05-06 14:24 26.29518 115.06796 29620 ft 481 kts 15°
2026-05-06 14:25 26.35848 115.09307 29629 ft 481 kts 15°
2026-05-06 14:25 26.42199 115.11828 29640 ft 482 kts 15°
2026-05-06 14:26 26.48535 115.14346 29654 ft 483 kts 15°
2026-05-06 14:26 26.54882 115.16870 29665 ft 485 kts 15°
2026-05-06 14:27 26.61296 115.19421 29653 ft 489 kts 15°
2026-05-06 14:27 26.67717 115.21973 29648 ft 489 kts 15°
2026-05-06 14:28 26.74172 115.24538 29638 ft 489 kts 15°
2026-05-06 14:28 26.80580 115.27090 29634 ft 489 kts 15°
2026-05-06 14:29 26.87018 115.29656 29636 ft 489 kts 15°
2026-05-06 14:29 26.93463 115.32223 29636 ft 490 kts 15°
2026-05-06 14:30 26.99866 115.34776 29631 ft 490 kts 15°
2026-05-06 14:30 27.06310 115.37344 29622 ft 490 kts 14°
2026-05-06 14:31 27.12802 115.39933 29611 ft 489 kts 14°
2026-05-06 14:31 27.19207 115.42489 29612 ft 489 kts 14°
2026-05-06 14:32 27.25646 115.45068 29610 ft 490 kts 14°
2026-05-06 14:32 27.32068 115.47644 29613 ft 489 kts 14°
2026-05-06 14:33 27.38507 115.50229 29615 ft 489 kts 14°
2026-05-06 14:33 27.44895 115.52796 29622 ft 488 kts 14°
2026-05-06 14:34 27.51311 115.55378 29616 ft 489 kts 14°
2026-05-06 14:34 27.57744 115.57970 29617 ft 489 kts 14°
2026-05-06 14:35 27.64120 115.60541 29622 ft 488 kts 14°
2026-05-06 14:35 27.70530 115.63127 29634 ft 488 kts 14°
2026-05-06 14:36 27.76926 115.65717 29639 ft 487 kts 15°
2026-05-06 14:36 27.83319 115.68305 29643 ft 488 kts 14°
2026-05-06 14:37 27.89760 115.70873 29629 ft 487 kts 12°
2026-05-06 14:37 27.96345 115.72086 29623 ft 473 kts 355°
2026-05-06 14:38 28.02913 115.72096 29603 ft 479 kts
2026-05-06 14:38 28.09454 115.73752 29607 ft 483 kts
2026-05-06 14:39 28.16003 115.75420 29608 ft 482 kts
2026-05-06 14:39 28.22625 115.76932 29597 ft 482 kts
2026-05-06 14:40 28.29212 115.78364 29593 ft 482 kts
2026-05-06 14:40 28.35810 115.79779 29595 ft 482 kts
2026-05-06 14:41 28.42408 115.81193 29592 ft 482 kts
2026-05-06 14:41 28.49059 115.82619 29594 ft 482 kts
2026-05-06 14:42 28.55665 115.84036 29597 ft 481 kts
2026-05-06 14:42 28.62270 115.85460 29594 ft 482 kts
2026-05-06 14:43 28.68855 115.86892 29602 ft 482 kts
2026-05-06 14:43 28.75479 115.88335 29600 ft 483 kts
2026-05-06 14:44 28.82058 115.89824 29593 ft 486 kts
2026-05-06 14:45 28.91127 115.95500 29590 ft 507 kts 38°
2026-05-06 14:45 28.95779 116.01607 29592 ft 514 kts 48°
2026-05-06 14:46 29.00139 116.08105 29590 ft 513 kts 49°
2026-05-06 14:46 29.04485 116.14544 29591 ft 513 kts 48°
2026-05-06 14:47 29.08880 116.21007 29594 ft 514 kts 48°
2026-05-06 14:47 29.13272 116.27425 29600 ft 513 kts 48°
2026-05-06 14:48 29.17678 116.33863 29601 ft 513 kts 49°
2026-05-06 14:48 29.22065 116.40310 29609 ft 513 kts 49°
2026-05-06 14:49 29.26460 116.46791 29613 ft 514 kts 49°
2026-05-06 14:49 29.30813 116.53218 29615 ft 513 kts 49°
2026-05-06 14:50 29.35199 116.59702 29616 ft 513 kts 48°
2026-05-06 14:50 29.37668 116.62588 29584 ft 505 kts 33°
2026-05-06 14:50 29.40674 116.64668 29613 ft 499 kts 23°
2026-05-06 14:51 29.46873 116.68211 29617 ft 500 kts 22°
2026-05-06 14:51 29.53125 116.71827 29617 ft 500 kts 23°
2026-05-06 14:52 29.59293 116.75460 29618 ft 500 kts 24°
2026-05-06 14:52 29.65496 116.79144 29622 ft 501 kts 24°
2026-05-06 14:53 29.71693 116.82838 29626 ft 502 kts 24°
2026-05-06 14:53 29.77925 116.86558 29625 ft 502 kts 24°
2026-05-06 14:54 29.84121 116.90263 29627 ft 502 kts 24°
2026-05-06 14:54 29.90316 116.93971 29631 ft 502 kts 24°
2026-05-06 14:55 29.96541 116.97701 29635 ft 502 kts 24°
2026-05-06 14:55 30.02763 117.01435 29643 ft 503 kts 24°
2026-05-06 14:56 30.08948 117.05153 29645 ft 502 kts 24°
2026-05-06 14:56 30.15193 117.08890 29648 ft 502 kts 24°
2026-05-06 14:57 30.21387 117.12592 29637 ft 502 kts 24°
2026-05-06 14:57 30.27618 117.16326 29633 ft 502 kts 24°
2026-05-06 14:58 30.33832 117.19991 29626 ft 501 kts 20°
2026-05-06 14:58 30.40426 117.22508 29625 ft 493 kts
2026-05-06 14:59 30.47160 117.23498 29631 ft 487 kts 359°
2026-05-06 14:59 30.53953 117.23819 29619 ft 486 kts 358°
2026-05-06 15:00 30.60697 117.24117 29526 ft 486 kts 358°
2026-05-06 15:00 30.64099 117.24281 29204 ft 486 kts 358°
2026-05-06 15:00 30.67473 117.24448 28898 ft 486 kts 358°
2026-05-06 15:00 30.70848 117.24616 28598 ft 487 kts 358°
2026-05-06 15:01 30.74279 117.24789 28297 ft 488 kts 358°
2026-05-06 15:01 30.77663 117.24961 28002 ft 489 kts 358°
2026-05-06 15:01 30.81089 117.25139 27699 ft 490 kts 358°
2026-05-06 15:01 30.84476 117.25328 27403 ft 491 kts 359°
2026-05-06 15:02 30.87879 117.25521 27103 ft 492 kts 358°
2026-05-06 15:02 30.91354 117.25720 26800 ft 493 kts 358°
2026-05-06 15:02 30.94773 117.25913 26504 ft 494 kts 358°
2026-05-06 15:02 30.98197 117.26104 26204 ft 495 kts 359°
2026-05-06 15:03 31.01688 117.26298 25901 ft 496 kts 358°
2026-05-06 15:03 31.05120 117.26488 25616 ft 498 kts 359°
2026-05-06 15:03 31.08600 117.26681 25538 ft 498 kts 358°
2026-05-06 15:03 31.12059 117.26873 25531 ft 498 kts 359°
2026-05-06 15:04 31.15509 117.27066 25529 ft 499 kts 358°
2026-05-06 15:04 31.18968 117.27258 25528 ft 498 kts 358°
2026-05-06 15:04 31.22464 117.27451 25526 ft 499 kts 358°
2026-05-06 15:04 31.25915 117.27640 25526 ft 498 kts 358°
2026-05-06 15:05 31.29386 117.27813 25522 ft 499 kts 358°
2026-05-06 15:05 31.32884 117.27975 25521 ft 499 kts 358°
2026-05-06 15:05 31.36367 117.28136 25522 ft 500 kts 358°
2026-05-06 15:05 31.39847 117.28297 25521 ft 499 kts 358°
2026-05-06 15:06 31.43305 117.28457 25520 ft 500 kts 358°
2026-05-06 15:06 31.46774 117.28908 25490 ft 507 kts 11°
2026-05-06 15:06 31.50035 117.30537 25508 ft 517 kts 29°
2026-05-06 15:06 31.52770 117.33332 25513 ft 524 kts 48°
2026-05-06 15:07 31.54675 117.37003 25520 ft 529 kts 66°
2026-05-06 15:07 31.55749 117.41125 25532 ft 530 kts 75°
2026-05-06 15:07 31.56613 117.45268 25521 ft 530 kts 75°
2026-05-06 15:07 31.57504 117.49486 25517 ft 530 kts 75°
2026-05-06 15:08 31.58418 117.53632 25516 ft 531 kts 74°
2026-05-06 15:08 31.59372 117.57807 25515 ft 531 kts 74°
2026-05-06 15:08 31.60345 117.61964 25512 ft 531 kts 73°
2026-05-06 15:08 31.61340 117.66175 25508 ft 530 kts 74°
2026-05-06 15:09 31.62324 117.70336 25506 ft 530 kts 74°
2026-05-06 15:09 31.63306 117.74493 25507 ft 530 kts 74°
2026-05-06 15:09 31.64287 117.78645 25507 ft 530 kts 74°
2026-05-06 15:09 31.65265 117.82787 25509 ft 530 kts 74°
2026-05-06 15:10 31.66246 117.86942 25508 ft 530 kts 74°
2026-05-06 15:10 31.67236 117.91138 25508 ft 530 kts 74°
2026-05-06 15:10 31.68222 117.95319 25508 ft 530 kts 74°
2026-05-06 15:10 31.69197 117.99470 25510 ft 529 kts 74°
2026-05-06 15:11 31.70168 118.03619 25510 ft 530 kts 74°
2026-05-06 15:11 31.70964 118.07873 25507 ft 531 kts 80°
2026-05-06 15:11 31.71371 118.12153 25508 ft 531 kts 87°
2026-05-06 15:11 31.71389 118.16463 25508 ft 530 kts 93°
2026-05-06 15:12 31.71128 118.20815 25510 ft 531 kts 95°
2026-05-06 15:12 31.70808 118.25113 25508 ft 530 kts 96°
2026-05-06 15:12 31.70475 118.29421 25509 ft 530 kts 96°
2026-05-06 15:12 31.70146 118.33733 25509 ft 531 kts 96°
2026-05-06 15:13 31.69826 118.38065 25510 ft 531 kts 96°
2026-05-06 15:13 31.69514 118.42346 25512 ft 531 kts 96°
2026-05-06 15:13 31.69199 118.46712 25513 ft 531 kts 95°
2026-05-06 15:13 31.68891 118.50995 25514 ft 531 kts 95°
2026-05-06 15:14 31.68582 118.55295 25513 ft 530 kts 96°
2026-05-06 15:14 31.68272 118.59591 25447 ft 531 kts 96°
2026-05-06 15:14 31.67958 118.63925 25070 ft 531 kts 95°
2026-05-06 15:14 31.67648 118.68200 24690 ft 522 kts 96°
2026-05-06 15:15 31.67347 118.72395 24293 ft 508 kts 96°
2026-05-06 15:15 31.67049 118.76509 23811 ft 497 kts 96°
2026-05-06 15:15 31.66750 118.80581 23272 ft 508 kts 97°
2026-05-06 15:15 31.66447 118.84681 22778 ft 508 kts 96°
2026-05-06 15:16 31.66141 118.88813 22293 ft 505 kts 97°
2026-05-06 15:16 31.65840 118.92859 21819 ft 501 kts 97°
2026-05-06 15:16 31.65538 118.96897 21349 ft 497 kts 97°
2026-05-06 15:16 31.65233 119.00949 20881 ft 493 kts 97°
2026-05-06 15:17 31.64939 119.04894 20418 ft 489 kts 96°
2026-05-06 15:17 31.64712 119.08886 19952 ft 486 kts 95°
2026-05-06 15:17 31.64527 119.12814 19474 ft 482 kts 95°
2026-05-06 15:17 31.64348 119.16732 18999 ft 478 kts 95°
2026-05-06 15:18 31.64181 119.20599 18532 ft 475 kts 95°
2026-05-06 15:18 31.64016 119.24436 18068 ft 470 kts 95°
2026-05-06 15:18 31.63852 119.28236 17608 ft 467 kts 95°
2026-05-06 15:18 31.63683 119.32053 17137 ft 463 kts 95°
2026-05-06 15:19 31.63512 119.35789 16666 ft 459 kts 95°
2026-05-06 15:19 31.63336 119.39508 16207 ft 456 kts 95°
2026-05-06 15:19 31.63155 119.43191 15749 ft 453 kts 94°
2026-05-06 15:19 31.62976 119.46900 15270 ft 449 kts 94°
2026-05-06 15:20 31.62805 119.50495 14801 ft 440 kts 94°
2026-05-06 15:20 31.62639 119.54009 14328 ft 431 kts 94°
2026-05-06 15:20 31.62473 119.57513 13867 ft 423 kts 94°
2026-05-06 15:20 31.62313 119.60883 13510 ft 412 kts 94°
2026-05-06 15:21 31.62154 119.64188 13152 ft 403 kts 94°
2026-05-06 15:21 31.61995 119.67436 12791 ft 393 kts 94°
2026-05-06 15:21 31.61843 119.70629 12430 ft 385 kts 94°
2026-05-06 15:21 31.61698 119.73749 12074 ft 377 kts 94°
2026-05-06 15:22 31.61559 119.76775 11758 ft 368 kts 94°
2026-05-06 15:22 31.61423 119.79739 11449 ft 360 kts 94°
2026-05-06 15:22 31.61289 119.82631 11142 ft 353 kts 94°
2026-05-06 15:22 31.61158 119.85477 10824 ft 346 kts 94°
2026-05-06 15:23 31.61029 119.88265 10506 ft 339 kts 94°
2026-05-06 15:23 31.60901 119.90997 10199 ft 333 kts 93°
2026-05-06 15:23 31.60774 119.93697 9886 ft 327 kts 93°
2026-05-06 15:23 31.60649 119.96349 9564 ft 322 kts 93°
2026-05-06 15:24 31.60526 119.98959 9247 ft 317 kts 93°
2026-05-06 15:24 31.60406 120.01502 8935 ft 312 kts 93°
2026-05-06 15:24 31.60287 120.04022 8620 ft 308 kts 93°
2026-05-06 15:24 31.60168 120.06519 8304 ft 303 kts 93°
2026-05-06 15:25 31.60051 120.08972 7985 ft 299 kts 93°
2026-05-06 15:25 31.59933 120.11401 7670 ft 295 kts 94°
2026-05-06 15:25 31.59819 120.13771 7360 ft 292 kts 94°
2026-05-06 15:25 31.59704 120.16155 7039 ft 288 kts 94°
2026-05-06 15:26 31.59592 120.18465 6724 ft 285 kts 94°
2026-05-06 15:26 31.59480 120.20778 6405 ft 282 kts 94°
2026-05-06 15:26 31.59366 120.23074 6075 ft 279 kts 94°
2026-05-06 15:26 31.59256 120.25314 5764 ft 276 kts 94°
2026-05-06 15:27 31.59145 120.27552 5446 ft 273 kts 94°
2026-05-06 15:27 31.59034 120.29783 5124 ft 271 kts 94°
2026-05-06 15:27 31.59129 120.31969 4781 ft 270 kts 72°
2026-05-06 15:27 31.60144 120.33777 4460 ft 266 kts 38°
2026-05-06 15:28 31.61688 120.34911 4172 ft 262 kts 28°
2026-05-06 15:28 31.63263 120.35929 3869 ft 255 kts 30°
2026-05-06 15:28 31.64757 120.36987 3571 ft 248 kts 33°
2026-05-06 15:28 31.66194 120.38095 3269 ft 242 kts 35°
2026-05-06 15:29 31.67540 120.39236 2970 ft 237 kts 45°
2026-05-06 15:29 31.68329 120.40860 2643 ft 228 kts 86°
2026-05-06 15:29 31.68107 120.42637 2359 ft 219 kts 113°
2026-05-06 15:29 31.67513 120.44276 2085 ft 217 kts 116°
2026-05-06 15:30 31.66935 120.45877 2004 ft 205 kts 115°
2026-05-06 15:30 31.66442 120.47385 1973 ft 190 kts 114°
2026-05-06 15:30 31.65800 120.48607 2001 ft 164 kts 141°
2026-05-06 15:30 31.64824 120.49119 1988 ft 152 kts 175°
2026-05-06 15:31 31.63763 120.48968 2001 ft 154 kts 191°
2026-05-06 15:31 31.62725 120.48605 2001 ft 156 kts 195°
2026-05-06 15:31 31.61692 120.48181 2001 ft 156 kts 196°
2026-05-06 15:32 31.59841 120.47385 1832 ft 132 kts 195°
2026-05-06 15:32 31.58985 120.47018 1647 ft 130 kts 195°
2026-05-06 15:32 31.58140 120.46658 1469 ft 130 kts 195°
2026-05-06 15:32 31.57288 120.46294 1302 ft 130 kts 195°
2026-05-06 15:33 31.56424 120.45924 1128 ft 131 kts 195°
2026-05-06 15:33 31.55559 120.45554 957 ft 132 kts 195°
2026-05-06 15:33 31.54698 120.45183 782 ft 132 kts 195°
2026-05-06 15:33 31.53834 120.44813 605 ft 132 kts 196°
2026-05-06 15:34 31.52961 120.44437 440 ft 133 kts 195°
2026-05-06 15:34 31.52085 120.44059 260 ft 134 kts 195°
2026-05-06 15:34 31.51200 120.43680 89 ft 134 kts 196°
2026-05-06 15:34 31.50340 120.43320 25 ft 118 kts 201°
2026-05-06 15:35 31.49730 120.43055 25 ft 68 kts 199°
2026-05-06 15:35 31.49462 120.42873 25 ft 27 kts 224°
2026-05-06 15:35 31.49402 120.42741 25 ft 14 kts 278°
2026-05-06 15:35 31.49467 120.42689 25 ft 12 kts 13°
2026-05-06 15:36 31.49553 120.42722 25 ft 13 kts 20°
2026-05-06 15:36 31.49642 120.42762 25 ft 14 kts 21°
2026-05-06 15:36 31.49737 120.42804 25 ft 14 kts 19°
2026-05-06 15:36 31.49834 120.42845 25 ft 15 kts 20°
2026-05-06 15:37 31.49938 120.42891 25 ft 16 kts 21°
2026-05-06 15:37 31.50050 120.42946 25 ft 18 kts 24°
2026-05-06 15:37 31.50172 120.42994 25 ft 18 kts 19°
2026-05-06 15:37 31.50294 120.43031 25 ft 15 kts 339°
2026-05-06 15:38 31.50377 120.42992 25 ft 13 kts 17°
2026-05-06 15:38 31.50464 120.43029 25 ft 7 kts 20°
2026-05-06 15:38 31.50500 120.43021 25 ft 4 kts 321°
2026-05-06 15:38 31.50518 120.42992 25 ft 4 kts 295°
2026-05-06 15:39 31.50525 120.42970 25 ft 0 kts 290°
2026-05-06 15:39 31.50526 120.42968 25 ft 0 kts 290°